TimeMDT,TemperatureF,Dew PointF,Humidity,Sea Level PressureIn,VisibilityMPH,Wind Direction,Wind SpeedMPH,Gust SpeedMPH,PrecipitationIn,Events,Conditions,WindDirDegrees,DateUTC
12:53 AM,21.0,3.9,48,30.20,10.0,Calm,Calm,-,N/A,,Partly Cloudy,0,2013-03-24 06:53:00
1:53 AM,18.0,3.9,54,30.20,10.0,Calm,Calm,-,N/A,,Mostly Cloudy,0,2013-03-24 07:53:00
2:53 AM,18.0,3.9,54,30.19,10.0,Calm,Calm,-,N/A,,Clear,0,2013-03-24 08:53:00
3:53 AM,17.1,6.1,62,30.19,10.0,East,3.5,-,N/A,,Scattered Clouds,100,2013-03-24 09:53:00
4:53 AM,17.1,7.0,65,30.19,10.0,SE,8.1,-,N/A,,Partly Cloudy,130,2013-03-24 10:53:00
5:53 AM,18.0,7.0,62,30.20,10.0,Calm,Calm,-,N/A,,Mostly Cloudy,0,2013-03-24 11:53:00
6:53 AM,14.0,6.1,71,30.23,10.0,ESE,4.6,-,N/A,,Clear,110,2013-03-24 12:53:00
7:53 AM,19.0,9.0,65,30.23,10.0,Calm,Calm,-,N/A,,Mostly Cloudy,0,2013-03-24 13:53:00
8:53 AM,24.1,10.0,55,30.22,10.0,SE,9.2,-,N/A,,Scattered Clouds,140,2013-03-24 14:53:00
9:53 AM,27.0,7.0,43,30.23,10.0,SSE,4.6,-,N/A,,Partly Cloudy,150,2013-03-24 15:53:00
10:53 AM,30.0,7.0,38,30.20,10.0,SW,5.8,-,N/A,,Clear,230,2013-03-24 16:53:00
11:53 AM,33.1,5.0,31,30.19,10.0,Variable,6.9,-,N/A,,Clear,0,2013-03-24 17:53:00
12:53 PM,36.0,1.0,23,30.17,10.0,West,11.5,-,N/A,,Clear,280,2013-03-24 18:53:00
1:53 PM,36.0,3.0,25,30.16,10.0,NW,10.4,19.6,N/A,,Partly Cloudy,310,2013-03-24 19:53:00
2:53 PM,37.9,3.0,23,30.14,10.0,Variable,5.8,-,N/A,,Mostly Cloudy,0,2013-03-24 20:53:00
3:53 PM,39.0,5.0,24,30.13,10.0,West,11.5,-,N/A,,Mostly Cloudy,270,2013-03-24 21:53:00
4:53 PM,37.9,1.9,22,30.14,10.0,NW,20.7,27.6,N/A,,Overcast,320,2013-03-24 22:53:00
5:53 PM,37.0,3.0,24,30.15,10.0,Variable,4.6,-,N/A,,Overcast,0,2013-03-24 23:53:00
6:53 PM,35.1,7.0,31,30.18,10.0,ENE,15.0,-,N/A,,Scattered Clouds,70,2013-03-25 00:53:00
7:53 PM,32.0,7.0,35,30.19,10.0,ENE,15.0,-,N/A,,Clear,60,2013-03-25 01:53:00
8:53 PM,30.9,5.0,33,30.19,10.0,NE,13.8,20.7,N/A,,Clear,50,2013-03-25 02:53:00
9:53 PM,30.0,5.0,35,30.20,10.0,NE,13.8,20.7,N/A,,Clear,50,2013-03-25 03:53:00
10:53 PM,28.0,5.0,38,30.22,10.0,Variable,4.6,-,N/A,,Clear,0,2013-03-25 04:53:00
11:53 PM,28.0,6.1,39,30.22,10.0,Calm,Calm,-,N/A,,Clear,0,2013-03-25 05:53:00